TimeAKDT,TemperatureF,Dew PointF,Humidity,Sea Level PressureIn,VisibilityMPH,Wind Direction,Wind SpeedMPH,Gust SpeedMPH,PrecipitationIn,Events,Conditions,WindDirDegrees,DateUTC
12:53 AM,36.0,30.9,82,29.88,10.0,Calm,Calm,-,N/A,,Overcast,0,2013-10-03 08:53:00
1:53 AM,32.0,30.0,92,29.87,10.0,ENE,3.5,-,N/A,,Partly Cloudy,70,2013-10-03 09:53:00
2:53 AM,30.0,28.9,96,29.87,10.0,NNE,6.9,-,N/A,,Overcast,20,2013-10-03 10:53:00
3:53 AM,33.1,28.0,82,29.85,10.0,North,6.9,-,N/A,,Overcast,10,2013-10-03 11:53:00
4:53 AM,30.0,26.1,85,29.83,10.0,North,5.8,-,N/A,,Partly Cloudy,10,2013-10-03 12:53:00
5:53 AM,28.9,25.0,85,29.82,10.0,North,4.6,-,N/A,,Clear,10,2013-10-03 13:53:00
6:53 AM,28.9,25.0,85,29.80,10.0,North,6.9,-,N/A,,Clear,350,2013-10-03 14:53:00
7:53 AM,28.0,25.0,88,29.78,10.0,North,8.1,-,N/A,,Clear,350,2013-10-03 15:53:00
8:53 AM,28.9,25.0,85,29.77,10.0,NNE,4.6,-,N/A,,Scattered Clouds,30,2013-10-03 16:53:00
9:53 AM,32.0,26.1,79,29.75,10.0,North,5.8,-,N/A,,Overcast,350,2013-10-03 17:53:00
10:53 AM,34.0,26.1,73,29.72,10.0,Variable,3.5,-,N/A,,Overcast,0,2013-10-03 18:53:00
11:53 AM,36.0,26.1,67,29.70,10.0,North,5.8,-,N/A,,Mostly Cloudy,360,2013-10-03 19:53:00
12:53 PM,37.9,27.0,65,29.69,10.0,NNW,4.6,-,N/A,,Overcast,340,2013-10-03 20:53:00
1:53 PM,41.0,27.0,57,29.67,10.0,Calm,Calm,-,N/A,,Overcast,0,2013-10-03 21:53:00
2:53 PM,42.1,28.0,58,29.65,10.0,ESE,4.6,-,N/A,,Overcast,110,2013-10-03 22:53:00
3:53 PM,42.1,28.0,58,29.62,10.0,ESE,3.5,-,N/A,,Overcast,120,2013-10-03 23:53:00
4:53 PM,42.1,28.0,58,29.60,10.0,Calm,Calm,-,N/A,,Overcast,0,2013-10-04 00:53:00
5:53 PM,42.1,28.9,60,29.59,10.0,NNE,4.6,-,N/A,,Overcast,20,2013-10-04 01:53:00
6:53 PM,39.9,28.9,65,29.58,10.0,NNW,3.5,-,N/A,,Overcast,340,2013-10-04 02:53:00
8:53 PM,37.0,28.0,70,29.58,10.0,NW,4.6,-,N/A,,Overcast,310,2013-10-04 04:53:00
9:53 PM,37.0,28.0,70,29.56,10.0,WNW,4.6,-,N/A,,Overcast,300,2013-10-04 05:53:00
10:53 PM,37.0,28.0,70,29.56,10.0,WNW,4.6,-,N/A,,Overcast,290,2013-10-04 06:53:00
11:53 PM,37.0,30.0,76,29.56,10.0,Calm,Calm,-,0.00,,Overcast,0,2013-10-04 07:53:00